Location: Columbia, SC
(34.0000°N, 81.0300°W)
Time: 13:40:47
(UTC-04:00)

Tiangong 1 - Visible Passes

Search period start: 22 August 2014 00:00
Search period end: 01 September 2014 00:00
Orbit: 369 x 375 km, 42.8° (Epoch: 22 August)

Date Brightness Start Highest point End Pass type
(mag) Time Alt. Az. Time Alt. Az. Time Alt. Az.
22 Aug 2.7 05:26:25 14° NW 05:28:37 32° NNE 05:31:25 10° E visible
23 Aug 4.2 04:26:21 16° NE 04:26:21 16° NE 04:27:19 10° ENE visible
23 Aug 0.9 05:58:30 10° WNW 06:01:34 84° SSW 06:04:38 10° ESE visible
24 Aug 2.3 04:58:29 40° ENE 04:58:29 40° ENE 05:00:53 10° E visible
25 Aug 1.3 05:30:54 46° SSW 05:30:54 46° SSW 05:33:39 10° SE visible
26 Aug 3.2 06:03:34 12° SSW 06:03:34 12° SSW 06:04:30 10° SSW visible
27 Aug 2.5 21:25:41 10° SW 21:27:18 26° SSW 21:27:18 26° SSW visible
28 Aug 2.6 20:22:41 10° S 20:24:58 19° SE 20:27:15 10° E visible
28 Aug 3.4 21:58:14 10° WSW 21:59:28 21° W 21:59:28 21° W visible
29 Aug 0.8 20:54:19 10° SW 20:57:22 77° SSE 20:59:18 20° ENE visible
30 Aug 2.5 21:27:11 10° W 21:30:00 33° NNW 21:30:50 28° NNE visible
31 Aug 1.4 20:22:59 10° WSW 20:26:01 64° NNW 20:29:03 10° NE visible
31 Aug 3.8 22:00:35 10° WNW 22:02:07 17° NNW 22:02:07 17° NNW visible
